KY4LEX Weather Reports


Display with metric or nautical units.
time (UTC)temp
F
wind
direction
speed
MPH
gust
MPH
rain 1hr
in
rain 24hr
in
rain mn
in
humidity
%
barometer
mb
20260507151444 59 25 0.0 2.0 0.00 0.00 0.00 43 1020.6
20260507150940 59 224 1.0 3.0 0.00 0.00 0.00 41 1020.9
20260507150437 58 20 0.0 2.0 0.00 0.00 0.00 43 1020.6
20260507145934 58 130 2.0 9.0 0.00 0.00 0.00 43 1020.8
20260507145429 58 24 1.0 3.0 0.00 0.00 0.00 42 1020.6
20260507144927 57 3 0.0 5.0 0.00 0.00 0.00 44 1020.6
20260507144424 57 92 1.0 9.0 0.00 0.00 0.00 44 1020.7
20260507143921 56 107 0.0 2.0 0.00 0.00 0.00 46 1020.9
20260507143418 56 316 0.0 2.0 0.00 0.00 0.00 46 1020.7
20260507142914 56 30 0.0 2.0 0.00 0.00 0.00 47 1020.8
20260507142410 56 359 0.0 2.0 0.00 0.00 0.00 47 1020.8
20260507141908 55 178 0.0 3.0 0.00 0.00 0.00 46 1020.8
20260507141404 55 29 0.0 2.0 0.00 0.00 0.00 48 1020.8
20260507140900 55 144 2.0 3.0 0.00 0.00 0.00 49 1020.8
20260507140357 55 175 1.0 2.0 0.00 0.00 0.00 49 1020.8
20260507135855 55 10 0.0 3.0 0.00 0.00 0.00 49 1020.4
20260507135351 54 351 1.0 2.0 0.00 0.00 0.00 49 1020.7
20260507134849 54 17 0.0 2.0 0.00 0.00 0.00 52 1020.7
20260507134345 54 27 0.0 3.0 0.00 0.00 0.00 50 1020.6
20260507133841 53 6 1.0 3.0 0.00 0.00 0.00 52 1020.8
20260507133337 52 144 1.0 2.0 0.00 0.00 0.00 52 1020.9
20260507132836 52 342 0.0 2.0 0.00 0.00 0.00 54 1021.0
20260507132331 52 18 0.0 0.0 0.00 0.00 0.00 55 1020.7
20260507131829 51 172 1.0 3.0 0.00 0.00 0.00 55 1020.8
20260507131325 51 101 0.0 2.0 0.00 0.00 0.00 57 1020.8
20260507130822 51 75 0.0 2.0 0.00 0.00 0.00 57 1020.9
20260507130319 50 125 1.0 2.0 0.00 0.00 0.00 58 1020.8
20260507125818 50 175 0.0 3.0 0.00 0.00 0.00 57 1020.7
20260507125315 50 149 1.0 3.0 0.00 0.00 0.00 58 1020.8
20260507124813 50 70 0.0 2.0 0.00 0.00 0.00 59 1021.0
20260507124309 50 93 0.0 2.0 0.00 0.00 0.00 62 1021.1
20260507123808 49 49 1.0 3.0 0.00 0.00 0.00 62 1020.8
20260507123305 49 95 1.0 3.0 0.00 0.00 0.00 62 1021.1
20260507122800 49 27 1.0 2.0 0.00 0.00 0.00 63 1021.2
20260507122256 49 43 0.0 2.0 0.00 0.00 0.00 66 1020.9
20260507121752 49 17 0.0 2.0 0.00 0.00 0.00 65 1021.2
20260507121248 49 39 0.0 5.0 0.00 0.00 0.00 65 1020.9
20260507120744 48 160 0.0 3.0 0.00 0.00 0.00 68 1021.2
20260507120241 48 27 0.0 3.0 0.00 0.00 0.00 68 1020.9
20260507115737 48 67 1.0 3.0 0.00 0.00 0.00 69 1020.9
20260507115233 48 51 0.0 2.0 0.00 0.00 0.00 70 1020.9
20260507114729 47 88 1.0 3.0 0.00 0.00 0.00 70 1020.8
20260507114227 47 54 0.0 0.0 0.00 0.00 0.00 73 1020.8
20260507113724 47 42 0.0 2.0 0.00 0.00 0.00 74 1020.6
20260507113221 47 106 1.0 2.0 0.00 0.00 0.00 76 1020.8
20260507112718 46 63 0.0 3.0 0.00 0.00 0.00 79 1020.8
20260507112215 45 48 0.0 2.0 0.00 0.00 0.00 85 1020.5
20260507111712 44 36 0.0 2.0 0.00 0.00 0.00 90 1020.6
20260507111209 44 111 0.0 2.0 0.00 0.00 0.00 93 1020.5
20260507110705 43 25 0.0 0.0 0.00 0.00 0.00 94 1020.5
20260507110202 43 36 0.0 0.0 0.00 0.00 0.00 95 1020.2
20260507105659 43 35 0.0 0.0 0.00 0.00 0.00 95 1020.1
20260507105155 43 36 0.0 0.0 0.00 0.00 0.00 95 1020.0
20260507104652 42 35 0.0 0.0 0.00 0.00 0.00 95 1020.1
20260507104148 43 36 0.0 0.0 0.00 0.00 0.00 95 1020.0
20260507103644 43 36 0.0 0.0 0.00 0.00 0.00 95 1020.2
20260507103141 42 36 0.0 0.0 0.00 0.00 0.00 95 1020.0
20260507102638 42 35 0.0 0.0 0.00 0.00 0.00 95 1019.8
20260507102134 43 35 0.0 0.0 0.00 0.00 0.00 95 1020.1
20260507101630 43 35 0.0 0.0 0.00 0.00 0.00 94 1019.9
20260507101126 43 35 0.0 0.0 0.00 0.00 0.00 94 1020.0
20260507100624 43 35 0.0 0.0 0.00 0.00 0.00 94 1020.1
20260507100122 43 35 0.0 0.0 0.00 0.00 0.00 94 1020.1
20260507095620 43 35 0.0 0.0 0.00 0.00 0.00 94 1019.9
20260507095116 43 35 0.0 0.0 0.00 0.00 0.00 93 1020.1
20260507094612 43 35 0.0 0.0 0.00 0.00 0.00 93 1019.9
20260507094109 44 35 0.0 0.0 0.00 0.00 0.00 93 1019.9
20260507093606 44 35 0.0 0.0 0.00 0.00 0.00 92 1020.0
20260507093105 44 35 0.0 0.0 0.00 0.00 0.00 92 1020.0
20260507092601 44 35 0.0 0.0 0.00 0.00 0.00 91 1019.9
20260507092058 44 35 0.0 0.0 0.00 0.00 0.00 90 1019.8
20260507091555 45 34 0.0 0.0 0.00 0.00 0.00 90 1020.0
20260507091051 45 34 0.0 0.0 0.00 0.00 0.00 90 1020.1
20260507090546 45 34 0.0 0.0 0.00 0.00 0.00 89 1020.2
20260507090044 45 35 0.0 0.0 0.00 0.00 0.00 89 1019.8
20260507085541 45 35 0.0 0.0 0.00 0.00 0.00 88 1019.8
20260507085037 45 34 0.0 0.0 0.00 0.00 0.00 87 1020.0
20260507084534 46 34 0.0 0.0 0.00 0.00 0.00 86 1020.1
20260507084031 46 34 0.0 0.0 0.00 0.00 0.00 85 1019.9
20260507083527 46 34 0.0 0.0 0.00 0.00 0.00 85 1019.8
20260507083025 46 34 0.0 0.0 0.00 0.00 0.00 84 1019.8
20260507082520 47 33 0.0 0.0 0.00 0.00 0.00 84 1019.6
20260507082017 47 34 0.0 0.0 0.00 0.00 0.00 84 1019.6
20260507081513 47 20 0.0 0.0 0.00 0.00 0.00 84 1019.7
20260507081010 47 38 0.0 0.0 0.00 0.00 0.00 84 1019.5
20260507080506 48 41 0.0 0.0 0.00 0.00 0.00 83 1019.5
20260507080001 48 38 0.0 0.0 0.00 0.00 0.00 83 1019.8
20260507075458 48 38 0.0 0.0 0.00 0.00 0.00 83 1019.4
20260507074954 48 38 0.0 0.0 0.00 0.00 0.00 84 1019.4
20260507074451 48 38 0.0 0.0 0.00 0.00 0.00 84 1019.2
20260507073950 48 39 0.0 0.0 0.00 0.00 0.00 83 1019.5
20260507073445 49 36 0.0 0.0 0.00 0.00 0.00 83 1019.6
20260507072942 49 36 0.0 0.0 0.00 0.00 0.00 81 1019.8
20260507072440 49 37 0.0 0.0 0.00 0.00 0.00 80 1019.7
20260507071937 50 25 0.0 0.0 0.00 0.00 0.00 81 1019.6
20260507071434 50 31 0.0 0.0 0.00 0.00 0.00 79 1019.5
20260507070930 49 39 0.0 0.0 0.00 0.00 0.00 82 1019.7
20260507070428 49 85 0.0 0.0 0.00 0.00 0.00 82 1019.6
20260507065924 49 49 0.0 0.0 0.00 0.00 0.00 82 1019.6
20260507065421 49 45 0.0 0.0 0.00 0.00 0.00 80 1019.7
20260507064919 49 45 0.0 0.0 0.00 0.00 0.00 81 1019.7
20260507064417 49 40 0.0 0.0 0.00 0.00 0.00 80 1019.6
20260507063914 49 40 0.0 0.0 0.00 0.00 0.00 80 1019.6
20260507063411 50 47 0.0 0.0 0.00 0.00 0.00 82 1019.6
20260507062908 50 44 0.0 0.0 0.00 0.00 0.00 81 1019.9
20260507062405 50 39 0.0 0.0 0.00 0.00 0.00 80 1019.8
20260507061903 50 43 0.0 0.0 0.00 0.00 0.00 79 1020.0
20260507061401 50 30 0.0 0.0 0.00 0.00 0.00 78 1020.2
20260507060859 51 30 0.0 0.0 0.00 0.00 0.00 78 1020.2
20260507060355 51 30 0.0 0.0 0.00 0.00 0.00 75 1020.1
20260507055853 51 30 0.0 0.0 0.00 0.00 0.00 75 1020.1
20260507055353 51 30 0.0 0.0 0.00 0.00 0.00 74 1019.9
20260507054850 51 30 0.0 0.0 0.00 0.00 0.00 74 1020.0
20260507054346 52 38 0.0 0.0 0.00 0.00 0.00 72 1019.7
20260507053843 52 38 0.0 0.0 0.00 0.00 0.00 72 1019.6
20260507053341 52 38 0.0 0.0 0.00 0.00 0.00 71 1019.8
20260507052840 52 47 0.0 0.0 0.00 0.00 0.00 73 1019.7
20260507052336 52 26 0.0 0.0 0.00 0.00 0.00 72 1019.9
20260507051834 52 43 0.0 0.0 0.00 0.00 0.00 75 1019.7
20260507051331 52 43 0.0 0.0 0.00 0.00 0.00 70 1019.9
20260507050828 52 43 0.0 0.0 0.00 0.00 0.00 70 1019.7
20260507050324 53 47 0.0 0.0 0.00 0.00 0.00 70 1019.7
20260507045821 53 47 0.0 0.0 0.00 0.00 0.00 70 1019.8
20260507045318 53 47 0.0 0.0 0.00 0.00 0.00 71 1019.8
20260507044815 53 38 0.0 0.0 0.00 0.00 0.00 69 1019.8
20260507044311 53 41 0.0 0.0 0.00 0.00 0.00 66 1020.0
20260507043807 54 38 0.0 0.0 0.00 0.00 0.00 66 1020.0
20260507043304 54 36 0.0 0.0 0.00 0.00 0.00 65 1019.9
20260507042800 54 41 0.0 2.0 0.00 0.00 0.00 65 1019.9
20260507042256 54 43 0.0 0.0 0.00 0.00 0.00 65 1020.0
20260507041753 54 44 0.0 2.0 0.00 0.00 0.00 64 1020.0
20260507041250 55 54 0.0 2.0 0.00 0.00 0.00 63 1020.3
20260507040747 55 36 0.0 0.0 0.00 0.00 0.00 63 1020.2
20260507040243 55 38 0.0 0.0 0.00 0.00 0.00 63 1020.3
20260507035739 55 34 0.0 0.0 0.00 0.77 0.77 64 1020.3
20260507035234 54 40 0.0 0.0 0.00 0.77 0.77 65 1020.3
20260507034732 55 33 0.0 2.0 0.00 0.77 0.77 67 1020.3
20260507034229 55 37 0.0 0.0 0.00 0.77 0.77 64 1020.4
20260507033727 55 37 0.0 0.0 0.00 0.77 0.77 62 1020.2
20260507033225 55 40 0.0 2.0 0.00 0.77 0.77 62 1020.4
20260507032722 55 37 0.0 2.0 0.00 0.77 0.77 63 1020.3
20260507032218 55 36 0.0 0.0 0.00 0.77 0.77 61 1020.3
20260507031715 55 37 0.0 0.0 0.00 0.77 0.77 61 1020.2
20260507031211 55 48 0.0 0.0 0.00 0.77 0.77 60 1020.1
20260507030708 56 38 0.0 0.0 0.00 0.77 0.77 60 1020.3
20260507030206 56 36 0.0 0.0 0.00 0.77 0.77 61 1020.2
20260507025703 56 352 0.0 0.0 0.00 0.77 0.77 60 1020.3
20260507025159 56 33 0.0 2.0 0.00 0.77 0.77 59 1020.2
20260507024658 56 337 0.0 2.0 0.00 0.77 0.77 60 1019.8
20260507024154 56 119 1.0 3.0 0.00 0.77 0.77 58 1019.7
20260507023650 56 104 0.0 2.0 0.00 0.77 0.77 59 1019.7
20260507023148 57 337 0.0 3.0 0.00 0.77 0.77 61 1019.8
20260507022644 57 25 0.0 0.0 0.00 0.77 0.77 62 1019.5
20260507022140 57 17 0.0 2.0 0.00 0.77 0.77 62 1019.5
20260507021637 57 301 0.0 2.0 0.00 0.77 0.77 64 1019.4
20260507021132 57 112 1.0 2.0 0.00 0.77 0.77 63 1019.4
20260507020631 57 89 0.0 2.0 0.00 0.77 0.77 64 1019.4
20260507020126 57 26 0.0 2.0 0.00 0.77 0.77 64 1019.2
20260507015625 57 36 0.0 3.0 0.00 0.77 0.77 64 1018.9
20260507015122 57 29 0.0 0.0 0.00 0.77 0.77 63 1019.1
20260507014619 57 70 0.0 2.0 0.00 0.77 0.77 62 1019.1
20260507014114 57 326 1.0 2.0 0.00 0.77 0.77 63 1019.1
20260507013612 57 28 0.0 0.0 0.00 0.77 0.77 66 1019.3
20260507013108 57 9 0.0 0.0 0.00 0.77 0.77 64 1019.3
20260507012606 57 29 0.0 0.0 0.00 0.77 0.77 67 1019.4
20260507012101 57 26 0.0 0.0 0.00 0.77 0.77 68 1019.3
20260507011600 57 21 0.0 0.0 0.00 0.77 0.77 66 1019.3
20260507011055 57 34 0.0 0.0 0.00 0.77 0.77 65 1019.1
20260507010550 57 19 0.0 2.0 0.00 0.77 0.77 64 1019.4
20260507010046 57 31 0.0 0.0 0.00 0.77 0.77 65 1019.2
20260507005544 57 42 0.0 2.0 0.00 0.77 0.77 62 1019.4
20260507005040 57 22 0.0 0.0 0.00 0.77 0.77 64 1019.3
20260507004537 57 33 0.0 2.0 0.00 0.77 0.77 64 1019.0
20260507004035 57 18 0.0 0.0 0.00 0.77 0.77 63 1019.0
20260507003530 58 21 0.0 0.0 0.00 0.77 0.77 65 1018.9
20260507003025 58 284 0.0 2.0 0.00 0.77 0.77 63 1018.9
20260507002522 58 36 0.0 2.0 0.00 0.77 0.77 64 1019.1
20260507002018 58 24 0.0 2.0 0.00 0.77 0.77 61 1018.9
20260507001515 58 44 0.0 0.0 0.00 0.77 0.77 62 1018.9
20260507001013 58 17 0.0 0.0 0.00 0.77 0.77 62 1018.6
20260507000508 58 27 0.0 0.0 0.00 0.77 0.77 62 1018.8
20260507000004 58 25 0.0 2.0 0.00 0.77 0.77 61 1018.4
20260506235502 58 15 0.0 0.0 0.00 0.77 0.77 60 1018.5
20260506234957 58 13 0.0 2.0 0.00 0.77 0.77 59 1018.9
20260506234455 59 18 1.0 2.0 0.00 0.77 0.77 59 1018.6
20260506233952 59 352 2.0 3.0 0.00 0.77 0.77 60 1018.4
20260506233449 59 31 0.0 2.0 0.00 0.77 0.77 62 1018.4
20260506232945 59 23 0.0 3.0 0.00 0.77 0.77 62 1018.3
20260506232442 59 73 1.0 3.0 0.00 0.77 0.77 62 1018.6
20260506231937 59 23 0.0 2.0 0.00 0.77 0.77 62 1018.5
20260506231436 59 68 2.0 3.0 0.00 0.77 0.77 62 1018.5
20260506230932 59 32 0.0 2.0 0.00 0.77 0.77 62 1018.5
20260506230428 60 14 1.0 3.0 0.00 0.77 0.77 62 1018.2
20260506225925 60 42 0.0 0.0 0.00 0.77 0.77 63 1018.0
20260506225422 60 313 1.0 2.0 0.00 0.77 0.77 63 1017.3
20260506224919 60 27 0.0 0.0 0.00 0.77 0.77 63 1017.7
20260506224417 60 25 0.0 2.0 0.00 0.77 0.77 62 1017.6
20260506223913 61 30 1.0 3.0 0.00 0.77 0.77 61 1018.3
20260506223408 61 1 0.0 2.0 0.00 0.77 0.77 61 1018.3
20260506222906 61 22 0.0 2.0 0.00 0.77 0.77 63 1017.8
20260506222402 61 14 0.0 2.0 0.00 0.77 0.77 62 1017.5
20260506221859 61 27 0.0 2.0 0.00 0.77 0.77 63 1017.6
20260506221356 61 16 0.0 2.0 0.00 0.77 0.77 63 1017.5
20260506220854 61 30 0.0 2.0 0.00 0.77 0.77 63 1017.6
20260506220349 61 34 0.0 2.0 0.00 0.77 0.77 62 1017.4
20260506215846 61 28 1.0 2.0 0.00 0.77 0.77 64 1017.8
20260506215342 61 31 0.0 0.0 0.00 0.77 0.77 64 1017.7
20260506214838 61 162 0.0 3.0 0.00 0.77 0.77 63 1017.6
20260506214335 61 55 0.0 3.0 0.00 0.77 0.77 65 1018.1
20260506213833 61 34 1.0 2.0 0.00 0.77 0.77 64 1018.4
20260506213330 61 37 0.0 2.0 0.00 0.77 0.77 64 1018.3
20260506212827 61 18 0.0 2.0 0.00 0.77 0.77 65 1018.3
20260506212323 61 340 3.0 5.0 0.00 0.77 0.77 63 1018.3
20260506211818 62 33 1.0 3.0 0.00 0.77 0.77 63 1017.7
20260506211315 61 39 0.0 2.0 0.00 0.77 0.77 63 1018.2
20260506210812 61 12 1.0 2.0 0.00 0.77 0.77 64 1017.7
20260506210309 61 26 1.0 3.0 0.00 0.77 0.77 63 1017.8
20260506205806 62 316 1.0 5.0 0.00 0.77 0.77 62 1017.7
20260506205305 63 15 0.0 2.0 0.00 0.77 0.77 63 1017.6
20260506204758 63 15 0.0 2.0 0.00 0.77 0.77 64 1017.8
20260506204256 62 51 0.0 2.0 0.00 0.77 0.77 62 1017.7
20260506203754 62 23 0.0 3.0 0.00 0.77 0.77 63 1017.4
20260506203251 61 18 0.0 3.0 0.00 0.77 0.77 63 1017.7
20260506202748 62 8 2.0 2.0 0.00 0.77 0.77 61 1017.5
20260506202244 62 17 0.0 2.0 0.00 0.77 0.77 63 1018.0
20260506201741 63 27 1.0 3.0 0.00 0.77 0.77 61 1018.0
20260506201238 62 22 0.0 2.0 0.00 0.77 0.77 62 1017.8
20260506200735 63 29 0.0 2.0 0.00 0.77 0.77 62 1018.3
20260506200232 62 272 0.0 2.0 0.00 0.77 0.77 63 1018.1
20260506195728 62 15 0.0 2.0 0.00 0.77 0.77 62 1018.1
20260506195224 62 22 0.0 3.0 0.00 0.77 0.77 61 1018.3
20260506194722 62 15 0.0 2.0 0.00 0.77 0.77 63 1018.2
20260506194218 62 46 2.0 3.0 0.00 0.77 0.77 62 1018.2
20260506193716 62 32 1.0 3.0 0.00 0.77 0.77 61 1018.6
20260506193213 62 319 3.0 7.0 0.00 0.77 0.77 61 1018.4
20260506192709 63 207 3.0 3.0 0.00 0.77 0.77 59 1018.1
20260506192206 63 67 2.0 9.0 0.00 0.77 0.77 61 1018.2
20260506191703 64 157 0.0 2.0 0.00 0.77 0.77 60 1017.8
20260506191159 64 14 0.0 2.0 0.00 0.77 0.77 64 1017.8
20260506190656 63 175 2.0 3.0 0.00 0.77 0.77 61 1017.8
20260506190153 63 84 2.0 3.0 0.00 0.77 0.77 60 1018.2
20260506185650 63 40 0.0 2.0 0.00 0.77 0.77 62 1017.7
20260506185146 62 41 0.0 3.0 0.00 0.77 0.77 62 1018.0
20260506184644 63 133 2.0 3.0 0.00 0.77 0.77 62 1017.6
20260506184141 63 49 0.0 2.0 0.00 0.77 0.77 64 1018.1
20260506183638 63 38 0.0 2.0 0.00 0.77 0.77 62 1017.5
20260506183133 63 78 0.0 3.0 0.00 0.77 0.77 62 1017.7
20260506182631 63 55 0.0 2.0 0.00 0.77 0.77 61 1017.7
20260506182128 62 58 1.0 3.0 0.00 0.77 0.77 63 1017.7
20260506181626 62 46 0.0 2.0 0.00 0.77 0.77 63 1017.8
20260506181123 63 97 2.0 5.0 0.00 0.77 0.77 61 1017.8
20260506180620 62 38 0.0 2.0 0.00 0.77 0.77 62 1018.0
20260506180116 63 51 0.0 2.0 0.00 0.77 0.77 62 1017.7
20260506175612 62 87 1.0 2.0 0.00 0.77 0.77 63 1017.5
20260506175108 62 15 1.0 2.0 0.00 0.77 0.77 64 1017.7
20260506174608 62 279 1.0 2.0 0.00 0.77 0.77 63 1018.0
20260506174103 63 354 1.0 2.0 0.00 0.77 0.77 60 1018.0
20260506173601 64 31 1.0 7.0 0.00 0.77 0.77 61 1017.5
20260506173058 62 22 0.0 2.0 0.00 0.77 0.77 64 1017.6
20260506172555 63 56 2.0 3.0 0.00 0.77 0.77 63 1017.7
20260506172051 64 73 1.0 2.0 0.00 0.77 0.77 59 1017.5
20260506171549 62 114 0.0 5.0 0.00 0.77 0.77 62 1017.8
20260506171047 62 23 1.0 5.0 0.00 0.77 0.77 65 1018.0
20260506170544 61 4 0.0 3.0 0.00 0.77 0.77 66 1017.7
20260506170041 63 357 1.0 3.0 0.00 0.77 0.77 62 1018.2
20260506165540 62 165 0.0 2.0 0.00 0.77 0.77 65 1018.1
20260506165035 61 323 1.0 5.0 0.00 0.77 0.77 66 1018.2
20260506164532 62 12 0.0 3.0 0.00 0.77 0.77 64 1017.8
20260506164030 63 155 0.0 2.0 0.00 0.77 0.77 64 1017.7
20260506163525 62 29 0.0 2.0 0.00 0.77 0.77 65 1017.8
20260506163021 62 17 0.0 2.0 0.00 0.77 0.77 65 1018.1
20260506162518 62 179 1.0 3.0 0.00 0.77 0.77 67 1018.1
20260506162015 61 20 0.0 2.0 0.00 0.77 0.77 69 1018.0
20260506161513 58 19 0.0 3.0 0.00 0.77 0.77 71 1017.8
20260506161010 58 27 1.0 5.0 0.00 0.77 0.77 70 1018.0
20260506160508 60 283 1.0 3.0 0.00 0.77 0.77 68 1018.0
20260506160005 59 31 0.0 2.0 0.00 0.77 0.77 71 1017.7
20260506155503 59 157 2.0 3.0 0.00 0.77 0.77 70 1017.6
20260506153634 58 16 0.0 3.0 0.00 0.77 0.77 78 1017.6
20260506153131 57 1 1.0 5.0 0.00 0.77 0.77 75 1017.6
20260506152628 57 23 0.0 2.0 0.00 0.77 0.77 79 1017.4
20260506152126 55 191 2.0 3.0 0.00 0.77 0.77 82 1017.7